カタログに戻る

FENGYUN 1C DEB

運用中SSO
NORAD 30352·DEBRIS·🇨🇳 China

打ち上げ May 10, 1999 から Taiyuan Satellite Launch Center

Loading…

次のパス (今後24時間)

TLE

最新Source: Space-Track

元期: Sep 13, 2026, 23:32 UTC

1 30352U 99025ABP 26256.98060101  .00000295  00000-0  19871-3 0  9999
2 30352  98.7481 274.6526 0027314 261.4860 126.7271 14.07754685  7750

AllMySatでFENGYUN 1C DEBをリアルタイム追跡

Download on the App Store